Meteo Giornale » Osservazioni meteo Italia » Napoli-Capodichino

ore: 03:20 - Osservazioni Meteo Napoli-Capodichino
Lat. 40° 51' N Lon. 14° 18' E Alt. 88 metri s.l.m.

molto_nuvoloso Europe/Rome

10 °C

Molto Nuvoloso

Temp. 24 Ore

5 °C

14 °C

Nord

1.8 Km/h

Dew point 8 °C

Umidità 87 %

Visibilità  10 Km

Il sole sorge alle ore 06:27

Il sole tramonta alle ore 18:00

Data e Ora Cielo e Fenomeni T °C DP °C Um. % Pres. hPa Vis. km Vento km/h
Oggi h: 03:20 molto_nuvoloso Molto Nuvoloso 10 8 87 1020 10 N 1.8
Oggi h: 02:50 molto_nuvoloso Molto Nuvoloso 11 8 81 1020 10 N 3.7
Oggi h: 02:20 molto_nuvoloso Molto Nuvoloso 11 8 81 1020 10 N 3.7
Oggi h: 01:50 molto_nuvoloso Molto Nuvoloso 11 8 81 1020 10 N 1.8
Oggi h: 01:20 molto_nuvoloso Molto Nuvoloso 11 8 81 1020 10 N 1.8
Oggi h: 00:50 molto_nuvoloso Molto Nuvoloso 11 8 81 1020 10 N 3.7
Oggi h: 00:20 molto_nuvoloso Molto Nuvoloso 11 8 81 1020 10 N 1.8
Ieri h: 23:50 nuvoloso Nuvoloso 11 8 81 1020 10 N 1.8
Ieri h: 23:20 nuvoloso Nuvoloso 12 8 76 1020 10 N 1.8
Ieri h: 22:50 nuvoloso Nuvoloso 12 8 76 1020 8 N 3.7
Ieri h: 22:20 nuvoloso Nuvoloso 12 8 76 1020 8 N 3.7
Ieri h: 21:50 nuvoloso Nuvoloso 12 8 76 1020 8 N 3.7
Ieri h: 21:20 molto_nuvoloso Molto Nuvoloso 12 8 76 1020 8 N 5.5
Ieri h: 20:50 coperto_pioggia Pioviggine Leggera 12 8 76 1020 10 N 5.5
Ieri h: 19:50 molto_nuvoloso Molto Nuvoloso 12 9 81 1019 10 N 1.8
Ieri h: 19:20 molto_nuvoloso Molto Nuvoloso 13 9 76 1019 10 N 1.8
Ieri h: 18:50 molto_nuvoloso Molto Nuvoloso 12 8 76 1019 10 N 1.8
Ieri h: 18:20 molto_nuvoloso Molto Nuvoloso 12 8 76 1019 10 N 3.7
Ieri h: 17:50 molto_nuvoloso Molto Nuvoloso 12 8 76 1018 10 N 5.5
Ieri h: 17:20 coperto_pioggia Pioviggine Leggera 12 8 76 1018 10 O/SO 9.3
Ieri h: 16:50 coperto_pioggia Pioggia Debole 13 9 76 1018 10 SO 13
Ieri h: 16:20 molto_nuvoloso Molto Nuvoloso 13 8 71 1018 10 S/SO 16.7
Ieri h: 15:50 molto_nuvoloso Molto Nuvoloso 13 8 71 1018 10 SO 14.8
Ieri h: 15:20 molto_nuvoloso Molto Nuvoloso 13 8 71 1018 10 S/SO 16.7
Ieri h: 14:50 molto_nuvoloso Molto Nuvoloso 14 9 71 1018 10 S/SO 14.8
Ieri h: 14:20 molto_nuvoloso Molto Nuvoloso 13 8 71 1018 10 S/SO 14.8
Ieri h: 13:50 molto_nuvoloso Molto Nuvoloso 13 8 71 1018 10 S/SO 14.8
Ieri h: 12:50 molto_nuvoloso Molto Nuvoloso 13 7 66 1018 10 S/SO 14.8
Ieri h: 12:20 nuvoloso Nuvoloso 14 8 67 1019 10 S/SO 14.8
Ieri h: 11:50 nuvoloso Nuvoloso 14 8 67 1019 10 S/SO 14.8
Ieri h: 11:20 molto_nuvoloso Molto Nuvoloso 14 7 62 1019 10 S/SO 14.8
Ieri h: 10:50 nuvoloso Nuvoloso 13 7 66 1019 10 S/SO 11.1
Ieri h: 10:20 nuvoloso Nuvoloso 13 6 62 1019 10 S/SO 9.3
Ieri h: 09:50 sereno Sereno 13 5 58 1019 10 N 3.7
Ieri h: 09:20 molto_nuvoloso Molto Nuvoloso 12 6 66 1019 10 N 3.7
Ieri h: 08:50 molto_nuvoloso Molto Nuvoloso 10 6 76 1019 10 N 1.8
Ieri h: 08:20 molto_nuvoloso Molto Nuvoloso 9 5 75 1019 10 N 1.8
Ieri h: 07:50 molto_nuvoloso Molto Nuvoloso 8 4 75 1019 10 N 3.7
Ieri h: 07:20 molto_nuvoloso Molto Nuvoloso 7 4 81 1019 10 N 3.7
Ieri h: 06:50 molto_nuvoloso Molto Nuvoloso 6 4 86 1019 8 N 3.7
Ieri h: 05:50 sereno Sereno 5 3 86 1019 10 N 5.5
Ieri h: 04:50 sereno Sereno 6 4 86 1019 10 N 1.8
Ieri h: 04:20 sereno Sereno 5 3 86 1020 10 N 3.7
Ieri h: 03:50 sereno Sereno 5 3 86 1020 10 N 3.7
Ieri h: 02:50 sereno Sereno 6 3 81 1020 10 N 1.8